TimeEDT,TemperatureF,Dew PointF,Humidity,Sea Level PressureIn,VisibilityMPH,Wind Direction,Wind SpeedMPH,Gust SpeedMPH,PrecipitationIn,Events,Conditions,WindDirDegrees,DateUTC
12:54 AM,48.0,42.1,80,30.05,10.0,NW,8.1,-,N/A,,Clear,310,2012-10-07 04:54:00
1:54 AM,46.9,39.9,77,30.06,10.0,Calm,Calm,-,N/A,,Clear,0,2012-10-07 05:54:00
3:54 AM,45.0,39.0,80,30.05,10.0,Calm,Calm,-,N/A,,Clear,0,2012-10-07 07:54:00
4:54 AM,45.0,39.0,80,30.08,10.0,South,4.6,-,N/A,,Clear,190,2012-10-07 08:54:00
5:54 AM,45.0,42.1,90,30.08,10.0,Calm,Calm,-,N/A,,Overcast,0,2012-10-07 09:54:00
6:54 AM,46.9,41.0,80,30.10,10.0,Calm,Calm,-,N/A,,Overcast,0,2012-10-07 10:54:00
7:54 AM,46.9,43.0,86,30.11,10.0,Calm,Calm,-,N/A,,Overcast,0,2012-10-07 11:54:00
8:54 AM,48.0,43.0,83,30.13,10.0,Calm,Calm,-,N/A,,Overcast,0,2012-10-07 12:54:00
9:54 AM,48.9,43.0,80,30.14,10.0,Calm,Calm,-,0.00,Rain,Light Rain,0,2012-10-07 13:54:00
10:54 AM,50.0,43.0,77,30.14,10.0,Calm,Calm,-,0.00,,Overcast,0,2012-10-07 14:54:00
11:54 AM,53.1,44.1,71,30.12,10.0,South,4.6,-,N/A,,Overcast,180,2012-10-07 15:54:00
12:54 PM,53.1,41.0,64,30.11,10.0,SSE,4.6,-,N/A,,Overcast,160,2012-10-07 16:54:00
1:54 PM,54.0,43.0,66,30.09,10.0,ESE,4.6,-,N/A,,Overcast,120,2012-10-07 17:54:00
2:54 PM,54.0,42.1,64,30.06,10.0,Calm,Calm,-,N/A,,Overcast,0,2012-10-07 18:54:00
3:54 PM,54.0,43.0,66,30.05,10.0,SSW,3.5,-,N/A,,Overcast,200,2012-10-07 19:54:00
4:54 PM,51.1,44.1,77,30.04,10.0,WSW,4.6,-,0.01,,Overcast,240,2012-10-07 20:54:00
5:54 PM,51.1,45.0,80,30.07,10.0,WSW,4.6,-,0.00,Rain,Light Rain,250,2012-10-07 21:54:00
6:54 PM,50.0,46.0,86,30.09,9.0,West,3.5,-,0.02,Rain,Light Rain,260,2012-10-07 22:54:00
7:54 PM,50.0,46.0,86,30.11,10.0,West,3.5,-,0.02,Rain,Light Rain,260,2012-10-07 23:54:00
8:54 PM,48.9,46.0,90,30.13,10.0,Calm,Calm,-,0.01,,Overcast,0,2012-10-08 00:54:00
9:54 PM,50.0,46.0,86,30.14,10.0,NW,4.6,-,N/A,,Overcast,310,2012-10-08 01:54:00
10:54 PM,48.0,44.1,86,30.14,10.0,West,4.6,-,N/A,,Mostly Cloudy,280,2012-10-08 02:54:00
11:54 PM,46.0,44.1,93,30.16,10.0,Calm,Calm,-,N/A,,Mostly Cloudy,0,2012-10-08 03:54:00